Rolla, MO

7:55 AM CDT on July 24, 2017 (GMT -0500)
Rolla National

Weather History for KVIH - October, 2013

Change the Weather History Date:

Tuesday, October 1, 2013

  Actual Average Record
Temperature  
Mean Temperature 73 °F 61 °F  
Max Temperature 81 °F 72 °F 90 °F (1952)
Min Temperature 65 °F 51 °F 35 °F (1958)
Degree Days  
Heating Degree Days 0 5  
Month to date heating degree days 0 5  
Since 1 July heating degree days 32 69  
Cooling Degree Days 8 2  
Month to date cooling degree days 8 2  
Year to date cooling degree days 1094 1220  
Growing Degree Days 22 (Base 50)    
Moisture  
Dew Point 66 °F    
Average Humidity 81    
Maximum Humidity 100    
Minimum Humidity 62    
Precipitation  
Precipitation 0.00 in 0.12 in 0.55 in (1995)
Month to date precipitation 0.12  
Year to date precipitation 35.84 33.71  
Sea Level Pressure  
Sea Level Pressure 29.96 in    
Wind  
Wind Speed 7 mph (South)    
Max Wind Speed 13 mph    
Max Gust Speed 18 mph    
Visibility 9 miles    
Events      
T = Trace of Precipitation, MM = Missing Value Source: NWS Daily Summary

Daily Weather History Graph

Daily Weather History Graph

Search for Another Location

Airport or City:

Trip Planner

Search our weather history database for the weather conditions in past years. The results will help you decide how hot, cold, wet, or windy it might be!

Date:

Astronomy

Oct. 01, 2013 Rise Set
Actual Time 7:03 AM CDT 6:49 PM CDT
Civil Twilight 6:36 AM CDT 7:15 PM CDT
Nautical Twilight 6:06 AM CDT 7:46 PM CDT
Astronomical Twilight 5:35 AM CDT 8:17 PM CDT
Moon 3:40 AM CDT (10/1) 4:51 PM CDT (10/1)
Length of Visible Light 12h 39m
Length of Day
11h 46m
Waning Crescent, 12% of the Moon is Illuminated
Oct 1
Waning Crescent
Oct 4
New
Oct 11
First Quarter
Oct 18
Full
Oct 26
Last Quarter

Hourly Weather History & Observations

Time (CDT) Temp. Heat Index Dew Point Humidity Pressure Visibility Wind Dir Wind Speed Gust Speed Precip Events Conditions
12:53 AM 64.9 °F - 64.0 °F 97% 29.91 in 10.0 mi South 9.2 mph - N/A   Overcast
1:53 AM 66.0 °F - 64.0 °F 93% 29.92 in 10.0 mi South 10.4 mph - N/A   Overcast
2:04 AM 66.0 °F - 64.0 °F 93% 29.94 in 10.0 mi South 9.2 mph - N/A   Overcast
2:53 AM 66.0 °F - 64.0 °F 93% 29.91 in 10.0 mi South 8.1 mph - N/A   Overcast
3:17 AM 64.9 °F - 64.0 °F 97% 29.94 in 10.0 mi South 8.1 mph - N/A   Scattered Clouds
3:46 AM 66.0 °F - 64.0 °F 93% 29.93 in 9.0 mi South 8.1 mph - N/A   Mostly Cloudy
3:53 AM 66.0 °F - 64.0 °F 93% 29.91 in 9.0 mi South 8.1 mph - N/A   Mostly Cloudy
4:53 AM 66.9 °F - 64.9 °F 93% 29.92 in 7.0 mi South 11.5 mph - N/A   Overcast
5:40 AM 66.9 °F - 66.0 °F 97% 29.96 in 7.0 mi South 6.9 mph - N/A   Overcast
5:53 AM 66.9 °F - 66.0 °F 97% 29.94 in 7.0 mi SSE 6.9 mph - N/A   Overcast
6:03 AM 66.9 °F - 66.0 °F 97% 29.97 in 7.0 mi SSE 8.1 mph - N/A   Overcast
6:53 AM 66.9 °F - 66.0 °F 97% 29.96 in 7.0 mi South 6.9 mph - N/A   Overcast
7:53 AM 68.0 °F - 66.0 °F 93% 29.98 in 7.0 mi South 6.9 mph - N/A   Overcast
8:34 AM 69.1 °F - 66.9 °F 93% 30.00 in 8.0 mi South 10.4 mph - N/A   Overcast
8:53 AM 70.0 °F - 66.9 °F 90% 29.99 in 9.0 mi South 8.1 mph - N/A   Overcast
9:53 AM 71.1 °F - 66.9 °F 87% 30.00 in 10.0 mi South 8.1 mph - N/A   Overcast
10:37 AM 72.0 °F - 68.0 °F 87% 30.02 in 10.0 mi South 8.1 mph - N/A   Mostly Cloudy
10:53 AM 73.9 °F - 68.0 °F 82% 30.00 in 10.0 mi South 10.4 mph - N/A   Mostly Cloudy
11:19 AM 73.9 °F - 66.9 °F 79% 30.02 in 10.0 mi SW 10.4 mph - N/A   Overcast
11:53 AM 78.1 °F - 69.1 °F 74% 29.99 in 10.0 mi South 9.2 mph - N/A   Mostly Cloudy
12:28 PM 78.1 °F - 68.0 °F 71% 30.01 in 10.0 mi SSW 8.1 mph - N/A   Mostly Cloudy
12:37 PM 78.1 °F - 68.0 °F 71% 30.00 in 10.0 mi SSW 6.9 mph - N/A   Scattered Clouds
12:53 PM 79.0 °F - 68.0 °F 69% 29.97 in 10.0 mi South 10.4 mph - N/A   Scattered Clouds
1:53 PM 78.1 °F - 66.0 °F 66% 29.95 in 10.0 mi SW 8.1 mph - N/A   Partly Cloudy
2:53 PM 80.1 °F 82.3 °F 66.9 °F 64% 29.94 in 10.0 mi SSW 8.1 mph - N/A   Scattered Clouds
3:53 PM 79.0 °F - 66.0 °F 64% 29.94 in 10.0 mi SSW 4.6 mph - N/A   Scattered Clouds
4:53 PM 81.0 °F 83.0 °F 66.0 °F 60% 29.93 in 10.0 mi South 5.8 mph - N/A   Mostly Cloudy
5:53 PM 79.0 °F - 64.9 °F 62% 29.94 in 10.0 mi SW 4.6 mph - N/A   Clear
6:53 PM 71.1 °F - 64.9 °F 81% 29.95 in 10.0 mi South 3.5 mph - N/A   Clear
7:53 PM 70.0 °F - 66.0 °F 87% 29.96 in 10.0 mi SSE 6.9 mph - N/A   Clear
8:53 PM 69.1 °F - 66.9 °F 93% 29.97 in 10.0 mi SSE 5.8 mph - N/A   Clear
9:53 PM 70.0 °F - 68.0 °F 93% 29.98 in 10.0 mi South 5.8 mph - N/A   Clear
10:53 PM 69.1 °F - 66.9 °F 93% 29.98 in 8.0 mi South 4.6 mph - N/A   Clear
11:53 PM 68.0 °F - 66.9 °F 96% 29.98 in 7.0 mi SSE 8.1 mph - N/A   Clear